AIE720 CYQB-CYVP

Flight info

Callsign AIE720
Flight time 1h 41m
Altitude 35000
Route GADAL Q910 YBC DCT ARAME DCT 54N068W 56N068W
Aircraft B738/M-SDE2E3FGHIRWXY/LB1

Departure

Time 2026-04-29 12:47
Airport Quebec Jean Lesage International Airport (CYQB)

Arrival

Time 2026-04-29 14:28
Airport Kuujjuaq Airport (CYVP)
Time Latitude Longitude Altitude Speed Heading
2026-04-29 12:25 46.79003 -71.38458 252 ft 0 kts 21°
2026-04-29 12:39 46.78987 -71.38467 252 ft 4 kts 11°
2026-04-29 12:39 46.78961 -71.38467 252 ft 4 kts 334°
2026-04-29 12:39 46.78946 -71.38446 252 ft 2 kts 278°
2026-04-29 12:40 46.78945 -71.38437 252 ft 0 kts 277°
2026-04-29 12:42 46.78946 -71.38440 252 ft 1 kts 277°
2026-04-29 12:42 46.78949 -71.38479 252 ft 7 kts 277°
2026-04-29 12:42 46.78983 -71.38563 252 ft 13 kts 328°
2026-04-29 12:43 46.79065 -71.38623 252 ft 13 kts 351°
2026-04-29 12:43 46.79154 -71.38606 252 ft 13 kts 11°
2026-04-29 12:43 46.79240 -71.38583 252 ft 12 kts 11°
2026-04-29 12:43 46.79324 -71.38560 252 ft 12 kts 11°
2026-04-29 12:44 46.79397 -71.38504 252 ft 12 kts 43°
2026-04-29 12:44 46.79463 -71.38408 252 ft 15 kts 45°
2026-04-29 12:44 46.79544 -71.38306 252 ft 15 kts 27°
2026-04-29 12:44 46.79631 -71.38225 252 ft 15 kts 44°
2026-04-29 12:45 46.79703 -71.38122 252 ft 14 kts 44°
2026-04-29 12:45 46.79782 -71.38047 252 ft 14 kts 10°
2026-04-29 12:45 46.79874 -71.38045 252 ft 13 kts
2026-04-29 12:45 46.79953 -71.38076 252 ft 9 kts 314°
2026-04-29 12:46 46.79963 -71.38150 252 ft 7 kts 248°
2026-04-29 12:46 46.79935 -71.38202 252 ft 6 kts 225°
2026-04-29 12:46 46.79872 -71.38292 252 ft 34 kts 223°
2026-04-29 12:46 46.79518 -71.38798 252 ft 106 kts 225°
2026-04-29 12:47 46.78843 -71.39776 256 ft 165 kts 225°
2026-04-29 12:47 46.77980 -71.41016 763 ft 179 kts 223°
2026-04-29 12:47 46.77098 -71.42254 1763 ft 171 kts 222°
2026-04-29 12:47 46.76286 -71.43453 2702 ft 172 kts 231°
2026-04-29 12:48 46.75947 -71.45256 3000 ft 207 kts 274°
2026-04-29 12:48 46.76640 -71.47233 3378 ft 234 kts 309°
2026-04-29 12:48 46.78079 -71.48502 3904 ft 253 kts 341°
2026-04-29 12:48 46.79909 -71.48538 4260 ft 278 kts 17°
2026-04-29 12:49 46.81530 -71.47039 4997 ft 284 kts 46°
2026-04-29 12:49 46.82913 -71.44951 5905 ft 287 kts 47°
2026-04-29 12:49 46.84318 -71.42801 6693 ft 295 kts 46°
2026-04-29 12:49 46.85748 -71.40673 7493 ft 299 kts 45°
2026-04-29 12:50 46.87238 -71.38523 8341 ft 302 kts 44°
2026-04-29 12:50 46.88764 -71.36372 9188 ft 307 kts 44°
2026-04-29 12:50 46.90324 -71.34208 9994 ft 312 kts 43°
2026-04-29 12:50 46.91938 -71.31992 10475 ft 328 kts 43°
2026-04-29 12:51 46.93679 -71.29617 10680 ft 353 kts 43°
2026-04-29 12:51 46.95522 -71.27110 11184 ft 365 kts 42°
2026-04-29 12:51 46.97397 -71.24564 11970 ft 368 kts 41°
2026-04-29 12:51 46.99246 -71.22051 12858 ft 367 kts 41°
2026-04-29 12:52 47.01137 -71.19479 13653 ft 371 kts 41°
2026-04-29 12:52 47.03040 -71.16888 14347 ft 375 kts 41°
2026-04-29 12:52 47.04963 -71.14269 15022 ft 379 kts 41°
2026-04-29 12:52 47.06908 -71.11616 15713 ft 382 kts 41°
2026-04-29 12:53 47.08842 -71.08978 16378 ft 386 kts 41°
2026-04-29 12:53 47.10809 -71.06256 17043 ft 390 kts 43°
2026-04-29 12:53 47.12758 -71.03440 17709 ft 394 kts 44°
2026-04-29 12:53 47.14710 -71.00566 18357 ft 398 kts 44°
2026-04-29 12:54 47.16678 -70.97655 18924 ft 402 kts 44°
2026-04-29 12:54 47.18641 -70.94754 19477 ft 406 kts 44°
2026-04-29 12:54 47.20653 -70.91784 20040 ft 410 kts 44°
2026-04-29 12:54 47.22675 -70.88804 20580 ft 413 kts 44°
2026-04-29 12:55 47.24718 -70.85793 21113 ft 417 kts 44°
2026-04-29 12:55 47.26788 -70.82744 21637 ft 421 kts 44°
2026-04-29 12:55 47.28866 -70.79680 22176 ft 425 kts 44°
2026-04-29 12:55 47.30964 -70.76583 22709 ft 428 kts 44°
2026-04-29 12:56 47.33051 -70.73498 23204 ft 432 kts 44°
2026-04-29 12:56 47.35183 -70.70342 23676 ft 436 kts 44°
2026-04-29 12:56 47.37333 -70.67156 24104 ft 439 kts 44°
2026-04-29 12:56 47.39498 -70.63944 24542 ft 442 kts 44°
2026-04-29 12:57 47.41669 -70.60718 24980 ft 444 kts 44°
2026-04-29 12:57 47.43861 -70.57458 25368 ft 448 kts 45°
2026-04-29 12:57 47.46066 -70.54174 25748 ft 451 kts 45°
2026-04-29 12:57 47.48256 -70.50909 26140 ft 454 kts 45°
2026-04-29 12:58 47.50509 -70.47587 26547 ft 456 kts 44°
2026-04-29 12:58 47.52836 -70.44378 26932 ft 459 kts 42°
2026-04-29 12:58 47.55228 -70.41211 27309 ft 462 kts 41°
2026-04-29 12:58 47.57661 -70.38041 27661 ft 465 kts 42°
2026-04-29 12:59 47.60099 -70.34862 28020 ft 468 kts 43°
2026-04-29 12:59 47.62517 -70.31689 28338 ft 471 kts 43°
2026-04-29 12:59 47.64975 -70.28442 28659 ft 474 kts 43°
2026-04-29 12:59 47.67450 -70.25154 28990 ft 477 kts 43°
2026-04-29 13:00 47.69929 -70.21847 29300 ft 480 kts 44°
2026-04-29 13:00 47.72417 -70.18516 29609 ft 483 kts 44°
2026-04-29 13:00 47.74889 -70.15203 29911 ft 486 kts 44°
2026-04-29 13:00 47.77404 -70.11828 30187 ft 488 kts 44°
2026-04-29 13:01 47.79934 -70.08428 30434 ft 491 kts 44°
2026-04-29 13:01 47.82474 -70.05011 30725 ft 492 kts 44°
2026-04-29 13:01 47.85022 -70.01579 31080 ft 491 kts 45°
2026-04-29 13:01 47.87527 -69.98201 31465 ft 490 kts 45°
2026-04-29 13:02 47.90056 -69.94788 31818 ft 489 kts 45°
2026-04-29 13:02 47.92582 -69.91372 32126 ft 490 kts 45°
2026-04-29 13:02 47.95107 -69.87952 32434 ft 490 kts 45°
2026-04-29 13:02 47.97638 -69.84519 32760 ft 490 kts 45°
2026-04-29 13:03 48.00136 -69.81126 33113 ft 489 kts 46°
2026-04-29 13:03 48.02660 -69.77695 33449 ft 488 kts 46°
2026-04-29 13:03 48.05178 -69.74265 33750 ft 489 kts 46°
2026-04-29 13:03 48.07669 -69.70867 34029 ft 489 kts 46°
2026-04-29 13:04 48.10187 -69.67429 34275 ft 489 kts 46°
2026-04-29 13:04 48.12709 -69.63980 34517 ft 489 kts 46°
2026-04-29 13:04 48.15218 -69.60544 34772 ft 489 kts 46°
2026-04-29 13:04 48.17731 -69.57099 34987 ft 490 kts 46°
2026-04-29 13:05 48.20227 -69.53670 35016 ft 493 kts 46°
2026-04-29 13:05 48.25296 -69.46693 35023 ft 493 kts 46°
2026-04-29 13:06 48.30329 -69.39754 35004 ft 486 kts 46°
2026-04-29 13:06 48.35259 -69.32932 35018 ft 484 kts 46°
2026-04-29 13:07 48.40207 -69.26064 35025 ft 482 kts 46°
2026-04-29 13:07 48.45139 -69.19199 35036 ft 482 kts 46°
2026-04-29 13:08 48.50042 -69.12357 35037 ft 483 kts 46°
2026-04-29 13:08 48.54985 -69.05440 35036 ft 484 kts 46°
2026-04-29 13:09 48.59926 -68.98506 35039 ft 485 kts 46°
2026-04-29 13:09 48.64848 -68.91580 35046 ft 487 kts 46°
2026-04-29 13:10 48.69814 -68.84573 35040 ft 488 kts 46°
2026-04-29 13:10 48.74762 -68.77572 35053 ft 488 kts 46°
2026-04-29 13:11 48.79743 -68.70504 35058 ft 489 kts 47°
2026-04-29 13:11 48.84683 -68.63474 35054 ft 489 kts 47°
2026-04-29 13:12 48.89660 -68.56371 35061 ft 489 kts 47°
2026-04-29 13:12 48.94585 -68.49322 35064 ft 488 kts 47°
2026-04-29 13:13 48.99527 -68.42227 35059 ft 488 kts 47°
2026-04-29 13:13 49.04464 -68.35118 35046 ft 486 kts 47°
2026-04-29 13:14 49.09345 -68.28077 35048 ft 485 kts 46°
2026-04-29 13:14 49.14951 -68.22290 35061 ft 490 kts 26°
2026-04-29 13:14 49.18143 -68.20438 35046 ft 492 kts 15°
2026-04-29 13:15 49.21447 -68.19264 35076 ft 491 kts 12°
2026-04-29 13:15 49.28167 -68.17171 35079 ft 491 kts 12°
2026-04-29 13:16 49.34860 -68.15073 35092 ft 496 kts 12°
2026-04-29 13:16 49.41635 -68.12860 35078 ft 498 kts 13°
2026-04-29 13:17 49.48409 -68.10602 35065 ft 500 kts 13°
2026-04-29 13:17 49.54061 -68.08707 35073 ft 499 kts 13°
2026-04-29 13:18 49.60876 -68.06420 35067 ft 499 kts 13°
2026-04-29 13:18 49.67627 -68.04152 35070 ft 497 kts 13°
2026-04-29 13:19 49.74385 -68.01875 35060 ft 496 kts 13°
2026-04-29 13:19 49.81126 -67.99598 35059 ft 495 kts 13°
2026-04-29 13:20 49.87816 -67.97331 35058 ft 494 kts 13°
2026-04-29 13:20 49.94527 -67.95051 35056 ft 493 kts 13°
2026-04-29 13:21 50.01193 -67.92779 35066 ft 492 kts 13°
2026-04-29 13:21 50.07898 -67.90488 35078 ft 492 kts 13°
2026-04-29 13:22 50.14607 -67.88186 34946 ft 495 kts 13°
2026-04-29 13:22 50.21280 -67.85889 35031 ft 493 kts 13°
2026-04-29 13:23 50.28002 -67.83575 35051 ft 493 kts 13°
2026-04-29 13:23 50.34709 -67.81260 35067 ft 499 kts 13°
2026-04-29 13:24 50.41537 -67.78892 35059 ft 503 kts 13°
2026-04-29 13:24 50.48406 -67.76504 35058 ft 506 kts 13°
2026-04-29 13:25 50.55269 -67.74112 35052 ft 506 kts 13°
2026-04-29 13:25 50.65551 -67.70511 35042 ft 506 kts 13°
2026-04-29 13:26 50.72433 -67.68093 35039 ft 506 kts 13°
2026-04-29 13:26 50.79318 -67.65667 35034 ft 505 kts 13°
2026-04-29 13:27 50.86131 -67.63259 35030 ft 504 kts 13°
2026-04-29 13:27 50.92983 -67.60829 35027 ft 503 kts 13°
2026-04-29 13:28 50.99812 -67.58401 35022 ft 502 kts 13°
2026-04-29 13:28 51.06587 -67.55984 35025 ft 501 kts 13°
2026-04-29 13:29 51.13416 -67.53540 35024 ft 501 kts 13°
2026-04-29 13:29 51.20189 -67.51109 35028 ft 500 kts 13°
2026-04-29 13:30 51.26957 -67.48673 35017 ft 500 kts 13°
2026-04-29 13:30 51.33811 -67.46636 35031 ft 501 kts
2026-04-29 13:31 51.40759 -67.47255 35017 ft 500 kts 351°
2026-04-29 13:31 51.47641 -67.48706 35004 ft 502 kts 350°
2026-04-29 13:32 51.54616 -67.50155 34988 ft 504 kts 351°
2026-04-29 13:32 51.61557 -67.51522 34983 ft 505 kts 351°
2026-04-29 13:33 51.68554 -67.52867 34976 ft 507 kts 351°
2026-04-29 13:33 51.75575 -67.54217 34967 ft 507 kts 351°
2026-04-29 13:34 51.82575 -67.55572 34978 ft 508 kts 351°
2026-04-29 13:34 51.89634 -67.56944 34956 ft 511 kts 351°
2026-04-29 13:35 51.96679 -67.58321 34936 ft 511 kts 351°
2026-04-29 13:35 52.03776 -67.59712 34939 ft 512 kts 351°
2026-04-29 13:36 52.10825 -67.61096 34934 ft 512 kts 350°
2026-04-29 13:36 52.17919 -67.62494 34922 ft 512 kts 350°
2026-04-29 13:37 52.24952 -67.63885 34928 ft 512 kts 350°
2026-04-29 13:37 52.32047 -67.65292 34928 ft 511 kts 350°
2026-04-29 13:38 52.39126 -67.66701 34919 ft 512 kts 349°
2026-04-29 13:38 52.46171 -67.68108 34926 ft 512 kts 349°
2026-04-29 13:39 52.53229 -67.69521 34912 ft 512 kts 349°
2026-04-29 13:39 52.60314 -67.70945 34902 ft 512 kts 349°
2026-04-29 13:40 52.67387 -67.72370 34907 ft 511 kts 349°
2026-04-29 13:40 52.74454 -67.73800 34905 ft 511 kts 349°
2026-04-29 13:41 52.81533 -67.75237 34897 ft 512 kts 349°
2026-04-29 13:41 52.88571 -67.76669 34918 ft 513 kts 349°
2026-04-29 13:42 52.95666 -67.78119 34898 ft 513 kts 349°
2026-04-29 13:42 53.02736 -67.79568 34884 ft 514 kts 349°
2026-04-29 13:43 53.09838 -67.81028 34886 ft 514 kts 349°
2026-04-29 13:43 53.16957 -67.82496 34894 ft 514 kts 349°
2026-04-29 13:44 53.24032 -67.83961 34861 ft 515 kts 349°
2026-04-29 13:44 53.31156 -67.85440 34866 ft 514 kts 349°
2026-04-29 13:45 53.38274 -67.86923 34903 ft 514 kts 349°
2026-04-29 13:45 53.45353 -67.88403 34857 ft 515 kts 349°
2026-04-29 13:46 53.52476 -67.89898 34855 ft 515 kts 349°
2026-04-29 13:46 53.56043 -67.90649 35003 ft 517 kts 349°
2026-04-29 13:46 53.59610 -67.91400 35356 ft 514 kts 349°
2026-04-29 13:47 53.63138 -67.92141 35862 ft 507 kts 349°
2026-04-29 13:47 53.66570 -67.92862 36404 ft 499 kts 349°
2026-04-29 13:47 53.70007 -67.93587 36850 ft 494 kts 349°
2026-04-29 13:47 53.73439 -67.94318 36797 ft 499 kts 349°
2026-04-29 13:48 53.80291 -67.95781 36818 ft 497 kts 349°
2026-04-29 13:48 53.87168 -67.97249 36821 ft 498 kts 349°
2026-04-29 13:49 53.94065 -67.98725 36823 ft 499 kts 349°
2026-04-29 13:49 54.00937 -68.00118 36809 ft 501 kts 353°
2026-04-29 13:50 54.07940 -68.00327 36796 ft 504 kts 358°
2026-04-29 13:50 54.14964 -68.00139 36793 ft 505 kts 358°
2026-04-29 13:51 54.22004 -68.00012 36795 ft 504 kts 357°
2026-04-29 13:51 54.28990 -67.99982 36786 ft 504 kts 357°
2026-04-29 13:52 54.36025 -67.99989 36788 ft 503 kts 356°
2026-04-29 13:52 54.43031 -67.99997 36788 ft 503 kts 356°
2026-04-29 13:53 54.49993 -68.00000 36782 ft 502 kts 356°
2026-04-29 13:53 54.56993 -68.00000 36789 ft 502 kts 357°
2026-04-29 13:54 54.63990 -68.00000 36781 ft 502 kts 357°
2026-04-29 13:54 54.70959 -68.00000 36771 ft 502 kts 357°
2026-04-29 13:55 54.77964 -68.00000 36764 ft 502 kts 357°
2026-04-29 13:55 54.84936 -68.00000 36754 ft 503 kts 356°
2026-04-29 13:56 54.91947 -68.00000 36747 ft 503 kts 357°
2026-04-29 13:56 54.98965 -68.00000 36748 ft 503 kts 356°
2026-04-29 13:57 55.05935 -68.00000 36750 ft 503 kts 357°
2026-04-29 13:57 55.11810 -68.00000 36752 ft 504 kts 356°
2026-04-29 13:58 55.19983 -68.00000 36739 ft 504 kts 356°
2026-04-29 13:58 55.26965 -68.00002 36750 ft 505 kts 357°
2026-04-29 13:59 55.34011 -68.00001 36744 ft 506 kts 357°
2026-04-29 13:59 55.41046 -68.00000 36735 ft 507 kts 356°
2026-04-29 14:00 55.48120 -68.00000 36731 ft 508 kts 356°
2026-04-29 14:00 55.55197 -68.00000 36732 ft 508 kts 356°
2026-04-29 14:01 55.58707 -68.00001 36460 ft 513 kts 356°
2026-04-29 14:01 55.62294 -68.00003 35924 ft 515 kts 356°
2026-04-29 14:01 55.65880 -68.00002 35337 ft 514 kts 356°
2026-04-29 14:01 55.69475 -68.00001 34715 ft 516 kts 355°
2026-04-29 14:02 55.73030 -68.00001 34063 ft 518 kts 355°
2026-04-29 14:02 55.76666 -68.00003 33335 ft 522 kts 355°
2026-04-29 14:02 55.80299 -68.00003 32795 ft 520 kts 355°
2026-04-29 14:02 55.82702 -68.00001 32473 ft 518 kts 355°
2026-04-29 14:03 55.87467 -67.99998 31831 ft 514 kts 355°
2026-04-29 14:03 55.89882 -67.99997 31517 ft 512 kts 355°
2026-04-29 14:03 55.93387 -67.99997 31103 ft 509 kts 355°
2026-04-29 14:03 55.96926 -67.99998 30587 ft 507 kts 355°
2026-04-29 14:04 56.00440 -68.00167 30106 ft 500 kts 349°
2026-04-29 14:04 56.03834 -68.01178 29636 ft 490 kts 341°
2026-04-29 14:04 56.07156 -68.02443 29222 ft 483 kts 341°
2026-04-29 14:04 56.10424 -68.03703 28705 ft 476 kts 341°
2026-04-29 14:05 56.13646 -68.04939 28098 ft 472 kts 341°
2026-04-29 14:05 56.16806 -68.06141 27497 ft 468 kts 341°
2026-04-29 14:05 56.19986 -68.07337 26923 ft 463 kts 342°
2026-04-29 14:05 56.23145 -68.08516 26379 ft 459 kts 342°
2026-04-29 14:06 56.26271 -68.09678 25934 ft 456 kts 342°
2026-04-29 14:06 56.29344 -68.10820 25498 ft 452 kts 342°
2026-04-29 14:06 56.32435 -68.11970 25048 ft 449 kts 342°
2026-04-29 14:06 56.35447 -68.13093 24621 ft 446 kts 342°
2026-04-29 14:07 56.38482 -68.14226 24196 ft 443 kts 342°
2026-04-29 14:07 56.41496 -68.15354 23765 ft 440 kts 342°
2026-04-29 14:07 56.44490 -68.16475 23320 ft 436 kts 342°
2026-04-29 14:07 56.47428 -68.17580 22854 ft 434 kts 343°
2026-04-29 14:08 56.50393 -68.18695 22368 ft 432 kts 343°
2026-04-29 14:08 56.53334 -68.19801 21920 ft 428 kts 343°
2026-04-29 14:08 56.56208 -68.20884 21486 ft 424 kts 343°
2026-04-29 14:08 56.59096 -68.21975 21081 ft 419 kts 343°
2026-04-29 14:09 56.61947 -68.23053 20653 ft 416 kts 343°
2026-04-29 14:09 56.64736 -68.24109 20247 ft 412 kts 343°
2026-04-29 14:09 56.67536 -68.25170 19843 ft 409 kts 343°
2026-04-29 14:09 56.70324 -68.26230 19441 ft 405 kts 343°
2026-04-29 14:10 56.73076 -68.27278 19040 ft 403 kts 343°
2026-04-29 14:10 56.75779 -68.28308 18640 ft 400 kts 343°
2026-04-29 14:10 56.78503 -68.29349 18247 ft 397 kts 343°
2026-04-29 14:10 56.81206 -68.30383 17829 ft 395 kts 343°
2026-04-29 14:11 56.83897 -68.31413 17379 ft 393 kts 343°
2026-04-29 14:11 56.86533 -68.32423 16966 ft 390 kts 343°
2026-04-29 14:11 56.89176 -68.33437 16662 ft 384 kts 343°
2026-04-29 14:11 56.91768 -68.34432 16385 ft 378 kts 343°
2026-04-29 14:12 56.94334 -68.35419 16114 ft 373 kts 343°
2026-04-29 14:12 56.96869 -68.36401 15796 ft 370 kts 344°
2026-04-29 14:12 56.99384 -68.37373 15403 ft 368 kts 344°
2026-04-29 14:12 57.01882 -68.38339 15036 ft 366 kts 344°
2026-04-29 14:13 57.04340 -68.39290 14673 ft 364 kts 344°
2026-04-29 14:13 57.06822 -68.40252 14306 ft 363 kts 344°
2026-04-29 14:13 57.09297 -68.41215 13932 ft 362 kts 344°
2026-04-29 14:13 57.11761 -68.42173 13565 ft 361 kts 344°
2026-04-29 14:14 57.14223 -68.43130 13165 ft 360 kts 344°
2026-04-29 14:14 57.16674 -68.44085 12758 ft 358 kts 343°
2026-04-29 14:14 57.19069 -68.45018 12412 ft 354 kts 343°
2026-04-29 14:14 57.21472 -68.45956 12045 ft 352 kts 343°
2026-04-29 14:15 57.23855 -68.46888 11678 ft 349 kts 343°
2026-04-29 14:15 57.26217 -68.47812 11318 ft 346 kts 343°
2026-04-29 14:15 57.28562 -68.48732 10979 ft 343 kts 343°
2026-04-29 14:15 57.30898 -68.49650 10625 ft 340 kts 343°
2026-04-29 14:16 57.33169 -68.50542 10439 ft 333 kts 342°
2026-04-29 14:16 57.35415 -68.51423 10315 ft 324 kts 342°
2026-04-29 14:16 57.37600 -68.52281 10167 ft 317 kts 342°
2026-04-29 14:16 57.39736 -68.53123 10032 ft 309 kts 342°
2026-04-29 14:17 57.41785 -68.53931 9981 ft 299 kts 342°
2026-04-29 14:17 57.43819 -68.54736 9606 ft 298 kts 342°
2026-04-29 14:17 57.45839 -68.55539 9354 ft 295 kts 342°
2026-04-29 14:17 57.47848 -68.56340 9055 ft 295 kts 342°
2026-04-29 14:18 57.49853 -68.57140 8778 ft 294 kts 342°
2026-04-29 14:18 57.51856 -68.57939 8495 ft 293 kts 342°
2026-04-29 14:18 57.53816 -68.58718 8264 ft 286 kts 342°
2026-04-29 14:18 57.55757 -68.59489 7863 ft 284 kts 342°
2026-04-29 14:19 57.57702 -68.60268 7538 ft 282 kts 342°
2026-04-29 14:19 57.59584 -68.61019 7205 ft 279 kts 342°
2026-04-29 14:19 57.61490 -68.61782 6781 ft 279 kts 343°
2026-04-29 14:19 57.63376 -68.62538 6467 ft 275 kts 343°
2026-04-29 14:20 57.65247 -68.63287 6101 ft 273 kts 343°
2026-04-29 14:20 57.67098 -68.64029 5684 ft 271 kts 343°
2026-04-29 14:20 57.68919 -68.64761 5244 ft 270 kts 343°
2026-04-29 14:20 57.70757 -68.65500 4879 ft 268 kts 343°
2026-04-29 14:21 57.72580 -68.66233 4610 ft 266 kts 343°
2026-04-29 14:21 57.74385 -68.66960 4350 ft 264 kts 343°
2026-04-29 14:21 57.76173 -68.67679 4113 ft 260 kts 343°
2026-04-29 14:21 57.77939 -68.68392 3874 ft 259 kts 342°
2026-04-29 14:22 57.79671 -68.69091 3627 ft 256 kts 342°
2026-04-29 14:22 57.81404 -68.69792 3414 ft 253 kts 343°
2026-04-29 14:22 57.83126 -68.70486 3184 ft 253 kts 342°
2026-04-29 14:22 57.84848 -68.71185 2915 ft 253 kts 341°
2026-04-29 14:23 57.86561 -68.71881 2651 ft 251 kts 342°
2026-04-29 14:23 57.88263 -68.72571 2408 ft 249 kts 342°
2026-04-29 14:23 57.89973 -68.72966 2161 ft 257 kts
2026-04-29 14:23 57.91676 -68.71863 2111 ft 264 kts 27°
2026-04-29 14:24 57.93170 -68.69799 2107 ft 266 kts 37°
2026-04-29 14:24 57.94576 -68.67566 2092 ft 260 kts 40°
2026-04-29 14:24 57.95891 -68.65319 2074 ft 248 kts 41°
2026-04-29 14:24 57.97112 -68.63211 2090 ft 233 kts 41°
2026-04-29 14:25 57.98270 -68.61220 2080 ft 216 kts 41°
2026-04-29 14:25 57.99328 -68.59409 2064 ft 195 kts 40°
2026-04-29 14:25 58.00320 -68.57711 2099 ft 190 kts 40°
2026-04-29 14:25 58.01267 -68.56089 2124 ft 176 kts 40°
2026-04-29 14:26 58.02184 -68.54522 1874 ft 176 kts 40°
2026-04-29 14:26 58.03072 -68.53002 1635 ft 169 kts 42°
2026-04-29 14:26 58.03921 -68.51554 1402 ft 164 kts 41°
2026-04-29 14:26 58.04745 -68.50141 1160 ft 155 kts 43°
2026-04-29 14:27 58.05520 -68.48810 931 ft 147 kts 41°
2026-04-29 14:27 58.06265 -68.47538 745 ft 143 kts 40°
2026-04-29 14:27 58.06992 -68.46294 541 ft 139 kts 41°
2026-04-29 14:28 58.08389 -68.43905 142 ft 131 kts 40°
2026-04-29 14:28 58.09020 -68.42830 103 ft 105 kts 43°
2026-04-29 14:28 58.09405 -68.42175 114 ft 44 kts 41°
2026-04-29 14:28 58.09562 -68.41908 118 ft 28 kts 42°
2026-04-29 14:29 58.09655 -68.41748 118 ft 8 kts 42°
2026-04-29 14:29 58.09704 -68.41694 118 ft 8 kts
2026-04-29 14:29 58.09751 -68.41742 116 ft 8 kts 315°
2026-04-29 14:29 58.09788 -68.41817 117 ft 8 kts 312°
2026-04-29 14:30 58.09822 -68.41889 120 ft 7 kts 312°
2026-04-29 14:30 58.09843 -68.41935 120 ft 1 kts 311°
2026-04-29 14:30 58.09849 -68.41947 120 ft 1 kts 311°
2026-04-29 14:30 58.09857 -68.41968 117 ft 5 kts 306°
2026-04-29 14:31 58.09883 -68.42045 119 ft 7 kts 310°
2026-04-29 14:31 58.09921 -68.42046 119 ft 6 kts 36°
2026-04-29 14:31 58.09957 -68.42010 118 ft 6 kts 32°
2026-04-29 14:31 58.09962 -68.41942 120 ft 5 kts 120°
2026-04-29 14:32 58.09952 -68.41924 115 ft 2 kts 146°
2026-04-29 14:32 58.09930 -68.41931 119 ft 4 kts 215°
2026-04-29 14:32 58.09919 -68.41949 117 ft 0 kts 221°